Regional Weather Roundup
Issued by NWS

Home | Current Version | Previous Version | Text Only | Print | Product List | Glossary On
Versions: 1 2 3 4 5 6 7 8 9 10 11 12 13 14 15 16 17 18 19 20 21 22 23 24 25 26 27
000
ASUS45 KBOU 282307
RWRCO

WEATHER ROUNDUP FOR COLORADO
NATIONAL WEATHER SERVICE DENVER/BOULDER CO
500 PM MDT TUE MAR 28 2017

NOTE: "FAIR" INDICATES FEW OR NO CLOUDS BELOW 12000 FEET WITH NO
SIGNIFICANT WEATHER AND/OR OBSTRUCTIONS TO VISIBILITY.

COZ001>005-013-030-031-290000-
...NORTHWEST COLORADO...

CITY           SKY/WX    TMP DP  RH WIND       PRES   REMARKS
CRAIG          LGT RAIN  45  33  63 N18G31    29.95R
HAYDEN         FAIR      43  34  70 W9        29.94R
MEEKER         CLOUDY    40  37  89 SE5       29.96R
MOUNT WERNER   NOT AVBL
STEAMBOAT SPGS CLOUDY    37  35  91 E8        29.94R
WALDEN         NOT AVBL
$$

COZ006>008-011-290000-
...WEST CENTRAL VALLEYS...

CITY           SKY/WX    TMP DP  RH WIND       PRES   REMARKS
GRAND JUNCTION CLOUDY    53  38  56 N13       29.90S
MONTROSE       CLOUDY    48  38  68 NW22G28   29.89S
EAGLE          CLOUDY    46  36  66 SW8       29.90R
RIFLE          CLOUDY    47  37  68 NW14      29.90S
DELTA          FAIR      55  39  55 W17G25    29.85S
NUCLA          CLOUDY    48  36  61 NW17G25   29.92R
$$

COZ017>023-064>068-290000-
...SOUTHWEST COLORADO...

CITY           SKY/WX    TMP DP  RH WIND       PRES   REMARKS
DURANGO        CLOUDY    43  32  65 E9        29.79R
CORTEZ         FAIR      48  39  71 NW12      29.84R
PAGOSA SPRINGS PTSUNNY   38  37  94 SW6       29.81F
TELLURIDE      CLOUDY    38  28  67 N6        29.90S
WOLF CREEK PAS CLOUDY    28  21  74 N9        29.92S WCI  20
$$

COZ009-010-012-014-032>034-037-058>063-290000-
...CENTRAL COLORADO...

CITY           SKY/WX    TMP DP  RH WIND       PRES   REMARKS
ASPEN          CLOUDY    38  34  85 NW7G17    29.88R
BUENA VISTA    RAIN      37  34  88 W9        29.87R
COPPER MTN     HVY SNOW  28  23  80 CALM      29.96R VSB<1/4
BERTHOUD PASS  SNOW      21  10  63 E3        29.98R VSB<1/4
COTTONWOOD PAS MIX PCPN  34  32  93 CALM      29.91R VSB 1/4
GUNNISON       FAIR      44  32  62 SW15G21   29.82F
KREMMLING      DRIZZLE   43  37  81 CALM      29.94R
LEADVILLE      CLOUDY    33  25  72 N13       29.88R WCI  24
MONARCH PASS   SNOW      28  27  93 E18       30.01F VSB<1/4 WCI  16
SALIDA         CLOUDY    45  34  66 N15G23    29.90R
SUNLIGHT       SNOW     N/A N/A N/A MISG      30.01R VSB<1/4
WILKERSON PASS SNOW      28  27  93 NE13G20   29.95S VSB 1/4 WCI  18
$$

COZ069>075-290000-
...SAN LUIS VALLEY/SANGRE DE CRISTO MOUNTAINS...

CITY           SKY/WX    TMP DP  RH WIND       PRES   REMARKS
ALAMOSA        CLOUDY    45  31  58 SE13      29.76R
LA VETA PASS   NOT AVBL
SAGUACHE       PTSUNNY   43  32  65 NW15G21   29.81R
$$

COZ035-036-038>040-290000-
...NORTHERN COLORADO FRONT RANGE...

CITY           SKY/WX    TMP DP  RH WIND       PRES   REMARKS
DENVER INTL AP LGT RAIN  43  41  93 N16       29.88R FOG
DMNS CITY PARK   N/A     42  41  95 N8G18     29.91R
AURORA         LGT RAIN  41  41  99 NW15      29.89R FOG
FRONT RANGE AP CLOUDY    45  45 100 N13       29.89R FOG
ERIE MUNI ARPT RAIN      44  41  89 N12G21    29.91R
BOULDER MUN AP RAIN      43  41  93 CALM      29.91R
CENTENNIAL     LGT RAIN  41  39  93 N18G25    29.89R FOG
BROOMFIELD     DRIZZLE   41  39  93 NW13G20   29.91R
FORT COLLINS   RAIN      44  41  89 N16       29.93R
LONGMONT       CLOUDY    48  40  72 N12G22    29.93R
$$

COZ041-046-047-076>085-087-088-290000-
...PIKES PEAK/PALMER DIVIDE AND SOUTHERN FOOTHILLS...

CITY           SKY/WX    TMP DP  RH WIND       PRES   REMARKS
COLO. SPRINGS  CLOUDY    45  36  70 N18G28    29.86R
A. F. ACADEMY  CLOUDY    42  37  82 N21G26    29.85F
SCHRIEVER AFB  LGT RAIN  44  39  82 N16       29.86
ELLICOTT       MIX PCPN N/A N/A N/A E12       29.86R
FALCON         CLOUDY    41  37  88 N17G23    29.88S
FORT CARSON    DRIZZLE   45  39  81 N14       29.84R
LIMON          CLOUDY    42  42 100 SE17      29.87R
MONUMENT HILL  RAIN      36  36 100 N15       29.90S
TRINIDAD       CLOUDY    49  40  71 N16       29.78R THUNDER
$$

COZ042>045-048>051-090-091-290000-
...NORTHEAST COLORADO...

CITY           SKY/WX    TMP DP  RH WIND       PRES   REMARKS
GREELEY ARPT   LGT RAIN  46  43  89 NE15      29.90S
AKRON          LGT RAIN  43  41  93 SE22G29   29.88S FOG
BURLINGTON     CLOUDY    42  40  92 E21       29.90R
WRAY           CLOUDY    43  43 100 SE21      29.92R
STERLING       CLOUDY    45  43  93 E15       29.90R FOG
HOLYOKE        CLOUDY    45  41  87 E20G25    29.95S
FORT MORGAN    DRIZZLE   46  44  93 E15       29.88R
$$

COZ086-089-092>099-290000-
...SOUTHEAST COLORADO...

CITY           SKY/WX    TMP DP  RH WIND       PRES   REMARKS
PUEBLO         CLOUDY    51  41  68 E23       29.80R
LA JUNTA       CLOUDY    47  43  86 E18       29.82R
LAMAR          LGT RAIN  45  42  89 E16       29.83R FOG
SPRINGFIELD      N/A     41  41 100 E18       29.81S
$$




USA.gov is the U.S. government's official web portal to all federal, state and local government web resources and services.